Location: Barruelo
(41.2448°N, 3.8231°W)
Time: 01:52:55
(UTC+00:00)

Cosmos 2297 Rocket - Pass Details

Date: 11 December 2025
Orbit: 837 x 844 km, 71.0° (Epoch: 14 January)

Event Time Altitude Azimuth Distance (km) Brightness Sun altitude
Rises 17:45:55 0° 332° (NNW) 3,410 5.4 -10.9°
Reaches altitude 10° 17:48:24 10° 329° (NNW) 2,471 4.8 -11.3°
Maximum altitude 17:53:58 61° 251° (WSW) 956 2.8 -12.3°
Drops below altitude 10° 17:59:30 10° 172° (S) 2,454 4.8 -13.3°
Sets 18:01:57 0° 169° (S) 3,384 5.4 -13.7°
